Flag for Germany Weather past 2 weeks in Schwedt/Oder, Brandenburg, Germany

41 °F

Passing clouds.

Feels Like: 34 °F
Forecast: 39 / 45 °F
Wind: 13 mph from Southwest

Location: Szczecin Airport

Current Time: Nov 30, 2015 at 7:08:00 PM

Latest Report: Nov 30, 2015 at 6:30 PM

Visibility: N/A

Pressure: 29.74 "Hg

Humidity: 76%

Dew point: 34 °F

Location of Schwedt/OderLocation

Historic Weather in Schwedt/Oder — Graph


Schwedt/Oder temperature yesterday

Maximum temperature yesterday: 46 °F (at 10:30 PM)
Minimum temperature yesterday: 34 °F (at 1:00 AM)
Average temperature yesterday: 40 °F

Past Weeks' High & Low Weather Summary

High54 °F (Nov 17, 9:30 PM)100% (Nov 15, 9:00 PM)30.18 "Hg (Nov 15, 9:00 PM)
Low25 °F (Nov 24, 12:30 AM)66% (Nov 30, 1:00 PM)29.33 "Hg (Nov 21, 1:30 AM)
Average40 °F91%29.71 "Hg
* Reported Nov 15 6:00 PM — Nov 30 6:00 PM, Schwedt/Oder, Weather by CustomWeather, © 2015

Note: Actual official high and low records may vary slightly from our data, if they occured in-between our weather recording intervals... More about our weather records


Schwedt/Oder weather history for previous 24 hours

Time TempWeatherWind HumidityBarometerVisibility
6:00 PM
Mon, Nov 30
41 °FPassing clouds.10 mph76%29.74 "HgN/A
5:30 PM41 °FPassing clouds.9 mph81%29.74 "HgN/A
5:00 PM41 °FPassing clouds.9 mph81%29.74 "HgN/A
4:30 PM41 °FPassing clouds.10 mph81%29.77 "HgN/A
4:00 PM41 °FPassing clouds.13 mph76%29.77 "HgN/A
3:30 PM41 °FPassing clouds.13 mph76%29.77 "HgN/A
3:00 PM41 °FPassing clouds.14 mph76%29.77 "HgN/A
2:30 PM41 °FPartly sunny.17 mph76%29.77 "HgN/A
2:00 PM43 °FPartly sunny.17 mph71%29.77 "HgN/A
1:30 PM43 °FScattered clouds.16 mph71%29.74 "HgN/A
1:00 PM43 °FScattered clouds.21 mph66%29.74 "HgN/A
12:30 PM43 °FScattered clouds.21 mph71%29.74 "HgN/A
12:00 PM43 °FScattered clouds.20 mph71%29.74 "HgN/A
11:30 AM43 °FScattered clouds.16 mph71%29.74 "HgN/A
11:00 AM41 °FPassing clouds.18 mph76%29.74 "HgN/A
10:30 AM41 °FPassing clouds.16 mph76%29.71 "HgN/A
10:00 AM41 °FPassing clouds.17 mph76%29.71 "HgN/A
9:30 AM39 °FSunny.14 mph81%29.68 "Hg10 mi
8:00 AM37 °FSunny.13 mph87%29.65 "Hg10 mi
7:30 AM37 °FClear.15 mph87%29.62 "Hg10 mi
7:00 AM37 °FClear.12 mph87%29.62 "Hg10 mi
6:30 AM37 °FClear.10 mph87%29.59 "Hg10 mi
6:00 AM37 °FClear.13 mph87%29.56 "Hg10 mi
5:30 AM37 °FPassing clouds.16 mph87%29.56 "HgN/A
4:30 AM36 °FSprinkles. Passing clouds.8 mph100%29.53 "HgN/A
4:00 AM34 °FClear.6 mph100%29.53 "Hg10 mi
3:30 AM34 °FSprinkles. Passing clouds.14 mph100%29.50 "HgN/A
3:00 AM43 °FSprinkles. Passing clouds.18 mph81%29.50 "Hg5 mi
2:00 AM45 °FPartly cloudy.13 mph87%29.47 "HgN/A
1:30 AM45 °FPassing clouds.13 mph81%29.45 "HgN/A
1:00 AM45 °FPassing clouds.10 mph87%29.45 "HgN/A
12:00 AM41 °FPassing clouds.8 mph93%29.42 "HgN/A
11:30 PM
Sun, Nov 29
41 °FStrong thunderstorms. Partly cloudy.25 mph93%29.45 "HgN/A
11:00 PM46 °FLight rain. Passing clouds.13 mph93%29.42 "HgN/A
10:30 PM46 °FPartly cloudy.13 mph87%29.45 "HgN/A
10:00 PM45 °FPartly cloudy.15 mph93%29.45 "HgN/A
9:30 PM45 °FPartly cloudy.15 mph93%29.47 "HgN/A
9:00 PM45 °FLight rain. Partly cloudy.15 mph87%29.50 "HgN/A
8:30 PM43 °FLight rain. Partly cloudy.15 mph93%29.53 "HgN/A
8:00 PM43 °FLight rain. Partly cloudy.12 mph93%29.53 "HgN/A
7:30 PM45 °FPartly cloudy.13 mph87%29.56 "HgN/A
7:00 PM45 °FPassing clouds.10 mph87%29.56 "HgN/A
Weather by CustomWeather, © 2015

See weather overviewHow to use our weather pages